FW6434 Weather Reports


time (UTC)temp
C
wind
direction
speed
KPH
gust
KPH
rain 1hr
cm
rain 24hr
cm
rain mn
cm
humidity
%
barometer
mb
20260502203005 15 179 0.0 0.0 0.00 0.00 0.00 57 1019.7
20260502202950 15 179 0.0 0.0 0.00 0.00 0.00 57 1019.9
20260502202713 15 179 0.0 0.0 0.00 0.00 0.00 56 1019.8
20260502202657 15 176 0.0 0.0 0.00 0.00 0.00 56 1019.9
20260502202430 15 175 0.0 0.0 0.00 0.00 0.00 57 1019.8
20260502202412 15 174 0.0 1.6 0.00 0.00 0.00 56 1020.0
20260502202357 15 174 0.0 1.6 0.00 0.00 0.00 56 1020.1
20260502202121 15 173 0.0 1.6 0.00 0.00 0.00 56 1020.0
20260502201633 15 169 0.0 1.6 0.00 0.00 0.00 55 1019.8
20260502201618 15 166 0.0 1.6 0.00 0.00 0.00 55 1020.0
20260502201602 15 172 0.0 1.6 0.00 0.00 0.00 55 1020.0
20260502201546 15 174 0.0 1.6 0.00 0.00 0.00 55 1019.9
20260502201532 15 176 0.0 1.6 0.00 0.00 0.00 55 1019.9
20260502201302 15 171 0.0 1.6 0.00 0.00 0.00 55 1019.9
20260502201246 15 171 0.0 1.6 0.00 0.00 0.00 55 1019.7
20260502200751 15 159 0.0 1.6 0.00 0.00 0.00 55 1020.0
20260502200743 15 158 0.0 1.6 0.00 0.00 0.00 55 1020.1
20260502200727 15 158 0.0 3.2 0.00 0.00 0.00 55 1019.9
20260502200712 15 151 0.0 3.2 0.00 0.00 0.00 55 1019.9
20260502200655 16 154 0.0 3.2 0.00 0.00 0.00 55 1019.8
20260502200206 16 150 0.0 3.2 0.00 0.00 0.00 55 1019.8
20260502200150 16 144 1.6 3.2 0.00 0.00 0.00 55 1019.8
20260502195829 16 127 1.6 3.2 0.00 0.00 0.00 54 1019.7
20260502195730 16 110 1.6 3.2 0.00 0.00 0.00 54 1019.8
20260502195650 16 127 1.6 3.2 0.00 0.00 0.00 54 1019.8
20260502195629 16 89 3.2 3.2 0.00 0.00 0.00 54 1019.8
20260502195530 16 128 1.6 3.2 0.00 0.00 0.00 55 1019.9
20260502195427 16 127 1.6 3.2 0.00 0.00 0.00 55 1019.9
20260502195323 16 140 0.0 3.2 0.00 0.00 0.00 54 1020.0
20260502195223 16 102 1.6 3.2 0.00 0.00 0.00 54 1019.8
20260502195143 16 129 1.6 3.2 0.00 0.00 0.00 54 1019.8
20260502195125 16 145 1.6 1.6 0.00 0.00 0.00 54 1019.7
20260502195022 16 127 1.6 1.6 0.00 0.00 0.00 54 1019.9
20260502194922 16 153 0.0 1.6 0.00 0.00 0.00 54 1019.9
20260502194822 16 104 1.6 1.6 0.00 0.00 0.00 54 1019.9
20260502194722 16 153 0.0 1.6 0.00 0.00 0.00 54 1020.1
20260502194638 16 154 0.0 1.6 0.00 0.00 0.00 54 1020.1
20260502194619 16 154 0.0 1.6 0.00 0.00 0.00 54 1019.9
20260502194518 16 142 0.0 1.6 0.00 0.00 0.00 53 1019.8
20260502194419 16 157 0.0 1.6 0.00 0.00 0.00 53 1020.0
20260502194359 16 163 0.0 1.6 0.00 0.00 0.00 53 1020.0
20260502194342 16 167 0.0 3.2 0.00 0.00 0.00 53 1020.1
20260502194328 16 167 0.0 3.2 0.00 0.00 0.00 53 1020.1
20260502194013 16 154 0.0 3.2 0.00 0.00 0.00 53 1019.9
20260502193917 16 150 0.0 3.2 0.00 0.00 0.00 53 1019.9
20260502193900 16 147 0.0 3.2 0.00 0.00 0.00 53 1019.9
20260502193845 16 155 0.0 3.2 0.00 0.00 0.00 53 1020.0
20260502193830 16 164 0.0 3.2 0.00 0.00 0.00 53 1019.9
20260502193507 16 143 0.0 3.2 0.00 0.00 0.00 53 1020.0
20260502193405 16 139 1.6 3.2 0.00 0.00 0.00 53 1020.0
20260502193306 16 159 0.0 3.2 0.00 0.00 0.00 52 1020.0
20260502193205 16 142 1.6 1.6 0.00 0.00 0.00 53 1019.8
20260502193125 16 112 0.0 1.6 0.00 0.00 0.00 53 1020.0
20260502193105 16 155 0.0 1.6 0.00 0.00 0.00 52 1020.0
20260502193005 16 130 0.0 3.2 0.00 0.00 0.00 52 1020.0
20260502192905 16 154 0.0 3.2 0.00 0.00 0.00 53 1019.9
20260502192806 16 153 0.0 3.2 0.00 0.00 0.00 52 1019.9
20260502192706 17 146 0.0 3.2 0.00 0.00 0.00 52 1019.9
20260502192625 17 152 0.0 3.2 0.00 0.00 0.00 52 1019.9
20260502192606 17 152 0.0 3.2 0.00 0.00 0.00 52 1019.9
20260502192506 17 157 0.0 3.2 0.00 0.00 0.00 52 1020.0
20260502192404 17 148 1.6 3.2 0.00 0.00 0.00 52 1020.1
20260502192305 17 155 0.0 3.2 0.00 0.00 0.00 52 1020.1
20260502192205 17 116 0.0 3.2 0.00 0.00 0.00 52 1020.1
20260502192124 17 142 1.6 3.2 0.00 0.00 0.00 51 1020.1
20260502192106 17 136 0.0 3.2 0.00 0.00 0.00 51 1020.1
20260502192005 17 90 1.6 3.2 0.00 0.00 0.00 52 1020.0
20260502191905 17 146 1.6 3.2 0.00 0.00 0.00 51 1020.1
20260502191805 17 131 1.6 3.2 0.00 0.00 0.00 51 1020.0
20260502191706 17 157 0.0 3.2 0.00 0.00 0.00 51 1019.9
20260502191624 17 161 0.0 4.8 0.00 0.00 0.00 51 1019.9
20260502191604 17 156 0.0 4.8 0.00 0.00 0.00 51 1020.0
20260502191504 17 141 0.0 4.8 0.00 0.00 0.00 51 1020.2
20260502191405 17 148 0.0 4.8 0.00 0.00 0.00 51 1020.0
20260502191304 17 160 0.0 4.8 0.00 0.00 0.00 51 1020.1
20260502191205 17 135 1.6 4.8 0.00 0.00 0.00 51 1020.1
20260502191124 17 87 1.6 4.8 0.00 0.00 0.00 51 1019.9
20260502191104 17 125 1.6 4.8 0.00 0.00 0.00 51 1019.9
20260502191041 17 157 0.0 4.8 0.00 0.00 0.00 50 1020.1
20260502191025 17 133 1.6 4.8 0.00 0.00 0.00 50 1020.4
20260502190704 17 95 3.2 4.8 0.00 0.00 0.00 50 1020.2
20260502190625 17 169 0.0 1.6 0.00 0.00 0.00 51 1020.0
20260502190605 17 169 0.0 1.6 0.00 0.00 0.00 50 1020.0
20260502190504 17 151 0.0 1.6 0.00 0.00 0.00 50 1020.2
20260502190406 17 146 0.0 1.6 0.00 0.00 0.00 50 1020.2
20260502190304 17 161 0.0 1.6 0.00 0.00 0.00 50 1020.0
20260502190159 17 177 0.0 1.6 0.00 0.00 0.00 50 1020.1
20260502190120 17 159 0.0 1.6 0.00 0.00 0.00 50 1020.2
20260502190059 17 172 0.0 1.6 0.00 0.00 0.00 50 1020.2
20260502190033 17 180 0.0 1.6 0.00 0.00 0.00 50 1020.1
20260502190017 17 173 0.0 1.6 0.00 0.00 0.00 50 1020.1
20260502185658 17 151 0.0 3.2 0.00 0.00 0.00 50 1020.0
20260502185641 17 172 0.0 3.2 0.00 0.00 0.00 50 1020.3
20260502185634 17 163 0.0 4.8 0.00 0.00 0.00 50 1020.3
20260502185618 17 175 0.0 4.8 0.00 0.00 0.00 50 1020.1
20260502185258 17 161 0.0 4.8 0.00 0.00 0.00 49 1019.9
20260502185159 17 165 0.0 4.8 0.00 0.00 0.00 49 1020.0
20260502185144 17 169 0.0 4.8 0.00 0.00 0.00 49 1020.0
20260502185135 17 170 0.0 4.8 0.00 0.00 0.00 49 1020.0
20260502185119 17 175 0.0 4.8 0.00 0.00 0.00 49 1020.0
20260502184759 18 90 0.0 6.4 0.00 0.00 0.00 49 1020.1
20260502184729 18 131 1.6 6.4 0.00 0.00 0.00 48 1019.8
20260502184723 18 117 1.6 4.8 0.00 0.00 0.00 49 1019.7
20260502184716 18 185 1.6 6.4 0.00 0.00 0.00 49 1020.0
20260502184701 18 165 1.6 6.4 0.00 0.00 0.00 49 1020.1
20260502184653 18 140 1.6 6.4 0.00 0.00 0.00 49 1020.1
20260502184637 18 198 0.0 6.4 0.00 0.00 0.00 49 1019.8
20260502184402 18 104 1.6 6.4 0.00 0.00 0.00 48 1019.9
20260502184346 18 187 1.6 6.4 0.00 0.00 0.00 49 1019.9
20260502184333 18 151 0.0 6.4 0.00 0.00 0.00 49 1019.8
20260502184100 18 81 4.8 6.4 0.00 0.00 0.00 49 1019.9
20260502184043 18 167 0.0 4.8 0.00 0.00 0.00 49 1020.1
20260502184028 18 123 1.6 4.8 0.00 0.00 0.00 49 1020.2
20260502184011 18 185 1.6 4.8 0.00 0.00 0.00 49 1019.8
20260502183959 18 164 0.0 3.2 0.00 0.00 0.00 49 1019.8
20260502183948 18 175 0.0 3.2 0.00 0.00 0.00 49 1020.0
20260502183933 18 131 1.6 4.8 0.00 0.00 0.00 49 1019.8
20260502183917 18 134 0.0 4.8 0.00 0.00 0.00 49 1019.8
20260502183629 18 144 1.6 6.4 0.00 0.00 0.00 49 1019.8
20260502183617 18 112 0.0 6.4 0.00 0.00 0.00 48 1019.8
20260502183600 18 77 3.2 6.4 0.00 0.00 0.00 49 1020.0
20260502183545 18 172 0.0 6.4 0.00 0.00 0.00 49 1020.0
20260502183528 18 99 0.0 6.4 0.00 0.00 0.00 49 1019.8
20260502183042 18 107 3.2 6.4 0.00 0.00 0.00 48 1020.0
20260502182804 18 126 1.6 6.4 0.00 0.00 0.00 49 1019.7
20260502182748 18 53 3.2 6.4 0.00 0.00 0.00 48 1019.8
20260502182242 18 118 3.2 4.8 0.00 0.00 0.00 49 1019.6
20260502182225 18 122 3.2 4.8 0.00 0.00 0.00 49 1019.7
20260502181737 18 120 1.6 6.4 0.00 0.00 0.00 49 1019.9
20260502181507 19 99 1.6 9.7 0.00 0.00 0.00 47 1019.6
20260502181458 18 101 1.6 11.3 0.00 0.00 0.00 49 1019.7
20260502181442 18 92 3.2 11.3 0.00 0.00 0.00 49 1019.8
20260502181427 18 46 3.2 11.3 0.00 0.00 0.00 49 1019.7
20260502181358 18 65 3.2 11.3 0.00 0.00 0.00 48 1019.7
20260502181118 18 132 1.6 11.3 0.00 0.00 0.00 48 1019.6
20260502181103 19 68 4.8 11.3 0.00 0.00 0.00 48 1019.8
20260502181046 19 65 3.2 11.3 0.00 0.00 0.00 48 1019.6
20260502181024 19 74 3.2 11.3 0.00 0.00 0.00 48 1019.8
20260502181009 19 112 1.6 11.3 0.00 0.00 0.00 48 1019.7
20260502180733 19 139 3.2 9.7 0.00 0.00 0.00 48 1019.7
20260502180717 19 85 1.6 9.7 0.00 0.00 0.00 48 1019.6
20260502180449 19 136 1.6 9.7 0.00 0.00 0.00 48 1019.7
20260502180433 19 70 3.2 9.7 0.00 0.00 0.00 48 1019.7
20260502180157 19 146 0.0 9.7 0.00 0.00 0.00 48 1019.6
20260502180142 19 65 3.2 9.7 0.00 0.00 0.00 48 1019.7
20260502170459 21 94 0.0 4.8 0.00 0.00 0.00 39 1019.6
20260502170358 21 57 1.6 4.8 0.00 0.00 0.00 39 1019.7
20260502170300 21 67 3.2 6.4 0.00 0.00 0.00 39 1019.8
20260502170158 21 63 1.6 6.4 0.00 0.00 0.00 39 1019.7
20260502170106 21 111 1.6 6.4 0.00 0.00 0.00 39 1019.4
20260502164306 21 149 0.0 11.3 0.00 0.00 0.00 39 1019.7
20260502164257 21 120 0.0 11.3 0.00 0.00 0.00 39 1019.7
20260502164156 21 80 1.6 11.3 0.00 0.00 0.00 38 1019.9
20260502164056 21 66 1.6 11.3 0.00 0.00 0.00 38 1019.7
20260502163956 21 78 3.2 11.3 0.00 0.00 0.00 38 1019.5
20260502163855 21 52 3.2 11.3 0.00 0.00 0.00 38 1019.8
20260502163802 21 78 4.8 11.3 0.00 0.00 0.00 38 1019.8
20260502163754 21 46 3.2 11.3 0.00 0.00 0.00 38 1019.8
20260502163648 21 49 9.7 11.3 0.00 0.00 0.00 38 1019.6
20260502163554 21 121 1.6 9.7 0.00 0.00 0.00 38 1019.7
20260502163548 21 50 3.2 9.7 0.00 0.00 0.00 38 1019.7
20260502163532 21 57 3.2 9.7 0.00 0.00 0.00 38 1019.6
20260502163517 21 48 0.0 9.7 0.00 0.00 0.00 38 1019.7
20260502163236 21 88 0.0 9.7 0.00 0.00 0.00 37 1019.9
20260502163202 21 58 3.2 3.2 0.00 0.00 0.00 37 1019.6
20260502163155 21 143 0.0 9.7 0.00 0.00 0.00 37 1019.5
20260502163140 21 136 3.2 9.7 0.00 0.00 0.00 37 1019.5
20260502163124 21 68 6.4 9.7 0.00 0.00 0.00 37 1019.7
20260502163108 21 57 4.8 4.8 0.00 0.00 0.00 37 1019.6
20260502162841 21 131 1.6 3.2 0.00 0.00 0.00 36 1019.8
20260502162825 21 123 1.6 1.6 0.00 0.00 0.00 36 1019.7
20260502162550 21 171 0.0 1.6 0.00 0.00 0.00 35 1019.9
20260502162250 21 173 0.0 1.6 0.00 0.00 0.00 35 1019.9
20260502162231 21 174 0.0 3.2 0.00 0.00 0.00 35 1020.0
20260502162130 21 174 0.0 6.4 0.00 0.00 0.00 35 1019.8
20260502162030 21 124 0.0 6.4 0.00 0.00 0.00 35 1020.0
20260502161927 21 150 0.0 6.4 0.00 0.00 0.00 35 1020.0
20260502161817 21 142 0.0 6.4 0.00 0.00 0.00 35 1019.9
20260502161749 21 159 0.0 6.4 0.00 0.00 0.00 35 1019.9
20260502161717 21 153 0.0 6.4 0.00 0.00 0.00 33 1020.0
20260502161617 21 180 0.0 6.4 0.00 0.00 0.00 35 1019.8
20260502161552 21 185 3.2 6.4 0.00 0.00 0.00 35 1020.0
20260502161544 21 141 0.0 6.4 0.00 0.00 0.00 33 1019.8
20260502161528 21 182 0.0 6.4 0.00 0.00 0.00 35 1019.9
20260502161512 21 174 0.0 6.4 0.00 0.00 0.00 36 1020.0
20260502161216 21 172 0.0 4.8 0.00 0.00 0.00 35 1020.0
20260502161119 21 97 3.2 4.8 0.00 0.00 0.00 35 1020.0
20260502161017 21 73 1.6 4.8 0.00 0.00 0.00 35 1020.0
20260502161000 21 164 0.0 4.8 0.00 0.00 0.00 35 1019.9
20260502160945 21 129 1.6 4.8 0.00 0.00 0.00 35 1020.1
20260502160932 21 44 1.6 4.8 0.00 0.00 0.00 35 1020.1
20260502160617 21 164 0.0 4.8 0.00 0.00 0.00 35 1020.2
20260502160552 21 160 1.6 4.8 0.00 0.00 0.00 35 1020.1
20260502160536 21 196 1.6 4.8 0.00 0.00 0.00 35 1020.0
20260502160249 21 153 0.0 4.8 0.00 0.00 0.00 35 1020.0
20260502160216 21 57 3.2 4.8 0.00 0.00 0.00 35 1019.8
20260502160117 21 61 4.8 4.8 0.00 0.00 0.00 35 1019.9
20260502152318 22 130 0.0 9.7 0.00 0.00 0.00 35 1020.4
20260502152249 22 135 0.0 9.7 0.00 0.00 0.00 35 1020.4
20260502152217 22 123 0.0 9.7 0.00 0.00 0.00 35 1020.3
20260502152117 22 131 0.0 9.7 0.00 0.00 0.00 35 1020.5
20260502152017 22 174 0.0 9.7 0.00 0.00 0.00 35 1020.5
20260502151918 22 184 0.0 9.7 0.00 0.00 0.00 35 1020.2
20260502151818 22 224 0.0 9.7 0.00 0.00 0.00 35 1020.5
20260502151749 22 215 0.0 9.7 0.00 0.00 0.00 35 1020.5
20260502151718 22 189 0.0 9.7 0.00 0.00 0.00 35 1020.5
20260502151616 22 182 0.0 9.7 0.00 0.00 0.00 35 1020.5
20260502151518 22 189 3.2 9.7 0.00 0.00 0.00 36 1020.4
20260502151502 22 158 1.6 6.4 0.00 0.00 0.00 35 1020.5
20260502151447 22 158 0.0 6.4 0.00 0.00 0.00 35 1020.5
20260502151432 22 153 0.0 6.4 0.00 0.00 0.00 36 1020.5
20260502151151 22 125 1.6 6.4 0.00 0.00 0.00 35 1020.5
20260502151135 22 90 3.2 6.4 0.00 0.00 0.00 35 1020.3
20260502151119 22 113 0.0 6.4 0.00 0.00 0.00 35 1020.6
20260502151104 21 155 0.0 6.4 0.00 0.00 0.00 36 1020.4
20260502151050 21 80 1.6 6.4 0.00 0.00 0.00 35 1020.4
20260502150517 22 65 3.2 6.4 0.00 0.00 0.00 35 1020.3
20260502150418 22 168 0.0 6.4 0.00 0.00 0.00 36 1020.7
20260502150319 22 62 6.4 6.4 0.00 0.00 0.00 35 1020.4
20260502150249 22 65 4.8 6.4 0.00 0.00 0.00 35 1020.4
20260502150217 22 54 1.6 6.4 0.00 0.00 0.00 35 1020.4
20260502150118 22 154 0.0 6.4 0.00 0.00 0.00 36 1020.4
20260502140113 22 133 0.0 4.8 0.00 0.00 0.00 35 1020.9
20260502130749 22 58 3.2 9.7 0.00 0.00 0.00 36 1021.4
20260502130733 22 58 3.2 9.7 0.00 0.00 0.00 35 1021.5
20260502130651 22 44 0.0 9.7 0.00 0.00 0.00 36 1021.5
20260502130550 21 72 1.6 9.7 0.00 0.00 0.00 37 1021.2
20260502130449 22 45 3.2 9.7 0.00 0.00 0.00 36 1021.5
20260502130349 22 50 3.2 9.7 0.00 0.00 0.00 36 1021.7
20260502130249 22 64 6.4 9.7 0.00 0.00 0.00 36 1021.5
20260502130234 22 64 6.4 9.7 0.00 0.00 0.00 36 1021.6
20260502130148 22 122 0.0 9.7 0.00 0.00 0.00 36 1021.6
20260502123711 21 66 3.2 12.9 0.00 0.00 0.00 37 1021.9
20260502123611 21 142 0.0 12.9 0.00 0.00 0.00 40 1021.7
20260502123514 21 84 0.0 12.9 0.00 0.00 0.00 39 1021.8
20260502123504 21 50 6.4 12.9 0.00 0.00 0.00 38 1022.1
20260502123454 21 75 1.6 12.9 0.00 0.00 0.00 39 1021.9
20260502123437 21 56 4.8 12.9 0.00 0.00 0.00 38 1021.8
20260502123207 21 56 9.7 12.9 0.00 0.00 0.00 38 1022.1
20260502123107 21 46 1.6 9.7 0.00 0.00 0.00 40 1021.9
20260502123006 21 78 1.6 9.7 0.00 0.00 0.00 39 1021.9
20260502122948 21 69 3.2 9.7 0.00 0.00 0.00 39 1021.8
20260502122933 21 156 3.2 9.7 0.00 0.00 0.00 39 1022.0
20260502122917 21 41 4.8 9.7 0.00 0.00 0.00 39 1022.2
20260502122606 21 48 3.2 9.7 0.00 0.00 0.00 39 1022.2
20260502122506 21 62 6.4 9.7 0.00 0.00 0.00 39 1022.0
20260502122407 21 83 3.2 9.7 0.00 0.00 0.00 38 1022.1
20260502122307 21 65 6.4 9.7 0.00 0.00 0.00 38 1022.0
20260502122215 21 89 0.0 9.7 0.00 0.00 0.00 39 1022.3
20260502122206 21 72 1.6 9.7 0.00 0.00 0.00 39 1022.3
20260502122106 21 57 1.6 9.7 0.00 0.00 0.00 39 1022.0
20260502122005 21 100 4.8 9.7 0.00 0.00 0.00 38 1022.1
20260502121906 21 49 4.8 9.7 0.00 0.00 0.00 38 1022.0
20260502121807 22 190 1.6 9.7 0.00 0.00 0.00 38 1022.1
20260502121714 22 139 0.0 9.7 0.00 0.00 0.00 38 1022.3
20260502121706 22 67 1.6 9.7 0.00 0.00 0.00 38 1022.3
20260502121606 21 70 3.2 9.7 0.00 0.00 0.00 39 1022.3
20260502121507 21 64 3.2 9.7 0.00 0.00 0.00 40 1022.1
20260502121408 21 47 1.6 9.7 0.00 0.00 0.00 39 1022.1
20260502121351 21 64 0.0 6.4 0.00 0.00 0.00 39 1022.2
20260502121332 21 56 1.6 6.4 0.00 0.00 0.00 40 1022.1
20260502121325 21 172 0.0 6.4 0.00 0.00 0.00 39 1022.1
20260502121006 21 97 3.2 6.4 0.00 0.00 0.00 39 1022.1
20260502120914 22 77 1.6 6.4 0.00 0.00 0.00 38 1022.3
20260502120900 22 80 1.6 6.4 0.00 0.00 0.00 38 1022.3
20260502120845 22 191 0.0 6.4 0.00 0.00 0.00 38 1022.3
20260502120839 22 191 0.0 6.4 0.00 0.00 0.00 38 1022.3
20260502120823 22 195 0.0 6.4 0.00 0.00 0.00 39 1022.3
20260502120546 21 283 0.0 6.4 0.00 0.00 0.00 40 1022.2
20260502120531 21 203 0.0 9.7 0.00 0.00 0.00 39 1022.2
20260502120512 21 193 3.2 9.7 0.00 0.00 0.00 39 1022.3
20260502120504 21 193 3.2 9.7 0.00 0.00 0.00 39 1022.3
20260502115709 21 53 1.6 11.3 0.00 0.00 0.00 40 1022.5
20260502115647 21 70 3.2 11.3 0.00 0.00 0.00 40 1022.5
20260502115547 21 69 4.8 11.3 0.00 0.00 0.00 40 1022.4
20260502115447 21 58 3.2 11.3 0.00 0.00 0.00 39 1022.4
20260502115348 21 74 1.6 11.3 0.00 0.00 0.00 40 1022.3
20260502115248 21 142 0.0 11.3 0.00 0.00 0.00 40 1022.2
20260502115208 21 46 3.2 11.3 0.00 0.00 0.00 40 1022.3
20260502115148 21 37 6.4 6.4 0.00 0.00 0.00 40 1022.3
20260502115128 21 184 3.2 12.9 0.00 0.00 0.00 42 1022.6
20260502115119 21 105 0.0 6.4 0.00 0.00 0.00 42 1022.4
20260502115103 21 63 1.6 14.5 0.00 0.00 0.00 42 1022.4
20260502114827 22 182 0.0 14.5 0.00 0.00 0.00 40 1022.4
20260502114812 22 192 0.0 14.5 0.00 0.00 0.00 40 1022.4
20260502114804 22 200 0.0 14.5 0.00 0.00 0.00 40 1022.4
20260502114529 21 200 0.0 14.5 0.00 0.00 0.00 42 1022.4
20260502114513 21 174 0.0 14.5 0.00 0.00 0.00 42 1022.5
20260502114235 21 156 1.6 14.5 0.00 0.00 0.00 41 1022.4
20260502114226 21 170 4.8 14.5 0.00 0.00 0.00 41 1022.6
20260502114211 21 160 3.2 14.5 0.00 0.00 0.00 41 1022.4
20260502113946 21 269 0.0 12.9 0.00 0.00 0.00 42 1022.5
20260502113931 21 180 0.0 12.9 0.00 0.00 0.00 41 1022.4
20260502113916 21 65 4.8 12.9 0.00 0.00 0.00 42 1022.6
20260502113637 21 186 0.0 14.5 0.00 0.00 0.00 42 1022.5
20260502113559 21 55 3.2 14.5 0.00 0.00 0.00 42 1022.5
20260502113544 21 81 0.0 14.5 0.00 0.00 0.00 41 1022.4
20260502113528 21 79 0.0 14.5 0.00 0.00 0.00 41 1022.5
20260502113514 21 196 3.2 14.5 0.00 0.00 0.00 42 1022.5
20260502113459 21 168 0.0 14.5 0.00 0.00 0.00 43 1022.5
20260502113230 21 161 1.6 14.5 0.00 0.00 0.00 43 1022.4
20260502112956 21 99 1.6 14.5 0.00 0.00 0.00 42 1022.7
20260502112657 21 158 8.0 14.5 0.00 0.00 0.00 43 1022.6
20260502112637 21 167 8.0 14.5 0.00 0.00 0.00 42 1023.0
20260502112536 21 204 0.0 12.9 0.00 0.00 0.00 42 1022.6
20260502112437 21 221 3.2 12.9 0.00 0.00 0.00 42 1022.9
20260502112335 21 66 1.6 12.9 0.00 0.00 0.00 42 1022.9
20260502112310 21 187 0.0 12.9 0.00 0.00 0.00 42 1022.7
20260502112254 21 117 0.0 12.9 0.00 0.00 0.00 42 1022.7
20260502112248 21 95 0.0 12.9 0.00 0.00 0.00 42 1022.7
20260502112232 21 186 0.0 12.9 0.00 0.00 0.00 42 1022.6
20260502111956 21 204 4.8 9.7 0.00 0.00 0.00 42 1022.7
20260502111655 21 192 0.0 11.3 0.00 0.00 0.00 42 1022.9
20260502111635 21 194 0.0 11.3 0.00 0.00 0.00 42 1023.1
20260502111535 21 180 0.0 11.3 0.00 0.00 0.00 42 1022.9
20260502111435 21 66 0.0 11.3 0.00 0.00 0.00 43 1022.7
20260502111329 21 58 1.6 11.3 0.00 0.00 0.00 44 1023.1
20260502111230 21 189 0.0 11.3 0.00 0.00 0.00 44 1022.9
20260502111150 21 184 0.0 11.3 0.00 0.00 0.00 44 1022.9
20260502111129 21 202 0.0 11.3 0.00 0.00 0.00 44 1022.6
20260502111109 21 75 3.2 9.7 0.00 0.00 0.00 43 1023.1
20260502111101 21 241 1.6 11.3 0.00 0.00 0.00 44 1022.9
20260502111045 20 189 0.0 11.3 0.00 0.00 0.00 43 1022.9
20260502111029 20 225 4.8 11.3 0.00 0.00 0.00 43 1022.9
20260502111014 20 212 3.2 11.3 0.00 0.00 0.00 44 1022.9
20260502111000 20 233 6.4 11.3 0.00 0.00 0.00 43 1022.9
20260502110950 20 213 8.0 11.3 0.00 0.00 0.00 43 1022.9
20260502110936 20 168 1.6 11.3 0.00 0.00 0.00 43 1022.6
20260502110701 20 102 0.0 11.3 0.00 0.00 0.00 43 1022.9
20260502110644 20 67 1.6 11.3 0.00 0.00 0.00 43 1022.9
20260502110631 20 69 4.8 11.3 0.00 0.00 0.00 43 1022.9
20260502110400 20 137 1.6 9.7 0.00 0.00 0.00 43 1022.9
20260502110344 20 100 3.2 9.7 0.00 0.00 0.00 44 1023.0
20260502105613 21 38 4.8 9.7 0.00 0.00 0.00 43 1023.1
20260502105513 21 97 1.6 9.7 0.00 0.00 0.00 43 1023.2
20260502105413 21 44 1.6 9.7 0.00 0.00 0.00 43 1023.2
20260502105335 21 130 0.0 9.7 0.00 0.00 0.00 43 1023.2
20260502105318 21 125 1.6 9.7 0.00 0.00 0.00 43 1023.1
20260502105306 21 151 1.6 9.7 0.00 0.00 0.00 43 1023.1
20260502105253 21 107 0.0 9.7 0.00 0.00 0.00 43 1023.1
20260502105029 21 48 3.2 9.7 0.00 0.00 0.00 43 1023.1
20260502105014 21 52 1.6 9.7 0.00 0.00 0.00 43 1023.0
20260502104958 21 144 3.2 6.4 0.00 0.00 0.00 43 1023.2
20260502104734 21 58 3.2 9.7 0.00 0.00 0.00 43 1023.3
20260502104721 21 106 1.6 9.7 0.00 0.00 0.00 43 1023.3
20260502104712 21 54 4.8 9.7 0.00 0.00 0.00 42 1023.1
20260502104656 21 178 0.0 9.7 0.00 0.00 0.00 42 1023.2
20260502104421 21 138 0.0 9.7 0.00 0.00 0.00 43 1023.4
20260502104405 21 51 0.0 9.7 0.00 0.00 0.00 43 1023.1
20260502104137 21 50 1.6 9.7 0.00 0.00 0.00 43 1023.4
20260502104121 21 192 0.0 9.7 0.00 0.00 0.00 42 1023.2
20260502103801 21 156 1.6 9.7 0.00 0.00 0.00 42 1023.2
20260502103659 21 41 6.4 6.4 0.00 0.00 0.00 42 1023.1
20260502103631 21 141 0.0 6.4 0.00 0.00 0.00 43 1023.1
20260502103557 21 169 0.0 6.4 0.00 0.00 0.00 41 1023.1
20260502103529 21 71 1.6 6.4 0.00 0.00 0.00 42 1023.4
20260502103512 21 68 3.2 9.7 0.00 0.00 0.00 41 1023.0
20260502103155 21 198 0.0 9.7 0.00 0.00 0.00 42 1023.3
20260502103140 21 215 0.0 9.7 0.00 0.00 0.00 42 1023.3
20260502103130 21 174 1.6 9.7 0.00 0.00 0.00 41 1023.3
20260502103114 22 46 6.4 9.7 0.00 0.00 0.00 40 1023.3
20260502102835 22 189 0.0 9.7 0.00 0.00 0.00 41 1023.5
20260502102819 22 52 1.6 9.7 0.00 0.00 0.00 43 1023.3
20260502102806 21 157 0.0 9.7 0.00 0.00 0.00 40 1023.3
20260502102453 21 196 3.2 9.7 0.00 0.00 0.00 41 1023.2
20260502102353 21 212 3.2 3.2 0.00 0.00 0.00 41 1023.3
20260502102253 21 84 0.0 3.2 0.00 0.00 0.00 42 1023.4
20260502102154 22 142 0.0 3.2 0.00 0.00 0.00 43 1023.7
20260502102125 22 162 0.0 3.2 0.00 0.00 0.00 42 1023.5
20260502102052 22 183 0.0 3.2 0.00 0.00 0.00 41 1023.5
20260502101953 22 192 0.0 3.2 0.00 0.00 0.00 42 1023.6
20260502101655 22 221 1.6 3.2 0.00 0.00 0.00 42 1023.3
20260502101625 22 179 0.0 3.2 0.00 0.00 0.00 42 1023.6
20260502101554 22 187 0.0 3.2 0.00 0.00 0.00 43 1023.6
20260502101450 22 196 1.6 3.2 0.00 0.00 0.00 45 1023.4
20260502101354 22 107 1.6 3.2 0.00 0.00 0.00 45 1023.6
20260502101337 22 192 0.0 3.2 0.00 0.00 0.00 43 1023.6
20260502101321 22 206 0.0 3.2 0.00 0.00 0.00 42 1023.7
20260502101304 22 306 1.6 3.2 0.00 0.00 0.00 42 1023.5
20260502100950 22 66 0.0 1.6 0.00 0.00 0.00 42 1023.6
20260502100924 22 196 0.0 1.6 0.00 0.00 0.00 44 1023.5
20260502100908 23 180 0.0 1.6 0.00 0.00 0.00 43 1023.6
20260502100619 23 200 0.0 11.3 0.00 0.00 0.00 40 1023.5
20260502100601 22 268 0.0 11.3 0.00 0.00 0.00 41 1023.5
20260502100544 22 187 0.0 11.3 0.00 0.00 0.00 43 1023.5
20260502100526 22 215 0.0 11.3 0.00 0.00 0.00 41 1023.6
20260502100510 22 197 0.0 11.3 0.00 0.00 0.00 43 1023.7
20260502100455 22 192 0.0 11.3 0.00 0.00 0.00 44 1023.8
20260502100440 21 192 0.0 11.3 0.00 0.00 0.00 44 1023.8
20260502100430 21 192 0.0 11.3 0.00 0.00 0.00 44 1023.6
20260502100153 21 184 0.0 11.3 0.00 0.00 0.00 43 1023.6
20260502091527 21 39 1.6 12.9 0.00 0.00 0.00 46 1024.1
20260502091250 20 134 1.6 12.9 0.00 0.00 0.00 45 1024.1
20260502091234 20 36 1.6 12.9 0.00 0.00 0.00 45 1024.1
20260502091009 20 93 1.6 12.9 0.00 0.00 0.00 45 1024.1
20260502090953 20 43 3.2 12.9 0.00 0.00 0.00 44 1024.1
20260502090717 20 29 1.6 12.9 0.00 0.00 0.00 44 1024.2
20260502090448 21 60 4.8 12.9 0.00 0.00 0.00 44 1024.3
20260502090212 21 66 6.4 11.3 0.00 0.00 0.00 43 1024.3
20260502090155 21 81 0.0 11.3 0.00 0.00 0.00 45 1024.3
20260502071451 18 111 1.6 3.2 0.00 0.00 0.00 50 1024.4
20260502071436 18 51 1.6 3.2 0.00 0.00 0.00 50 1024.4
20260502071420 18 114 0.0 3.2 0.00 0.00 0.00 50 1024.5
20260502071404 18 146 0.0 3.2 0.00 0.00 0.00 51 1024.4
20260502070915 18 83 0.0 3.2 0.00 0.00 0.00 51 1024.5
20260502070859 18 98 1.6 3.2 0.00 0.00 0.00 52 1024.3
20260502070624 18 109 0.0 3.2 0.00 0.00 0.00 52 1024.5
20260502070617 18 109 0.0 3.2 0.00 0.00 0.00 52 1024.5
20260502070257 18 89 1.6 3.2 0.00 0.00 0.00 52 1024.2
20260502070157 18 90 1.6 3.2 0.00 0.00 0.00 53 1024.2
20260502070058 18 162 0.0 3.2 0.00 0.00 0.00 55 1024.4
20260502070007 18 165 0.0 3.2 0.00 0.00 0.00 52 1024.6
20260502065958 18 168 0.0 3.2 0.00 0.00 0.00 52 1024.6
20260502065853 18 64 0.0 3.2 0.00 0.00 0.00 52 1024.4
20260502065744 17 171 0.0 3.2 0.00 0.00 0.00 54 1024.4
20260502065643 17 172 0.0 3.2 0.00 0.00 0.00 53 1024.3
20260502065544 17 133 1.6 3.2 0.00 0.00 0.00 53 1024.5
20260502065504 17 71 1.6 3.2 0.00 0.00 0.00 53 1024.4
20260502065443 17 77 1.6 3.2 0.00 0.00 0.00 55 1024.6
20260502065342 17 73 1.6 3.2 0.00 0.00 0.00 53 1024.5
20260502065241 17 158 1.6 3.2 0.00 0.00 0.00 53 1024.6
20260502065143 17 100 0.0 3.2 0.00 0.00 0.00 53 1024.4
20260502065041 17 87 1.6 3.2 0.00 0.00 0.00 53 1024.3
20260502065001 17 136 0.0 3.2 0.00 0.00 0.00 55 1024.3
20260502064941 17 47 3.2 3.2 0.00 0.00 0.00 54 1024.4
20260502064841 17 176 0.0 3.2 0.00 0.00 0.00 55 1024.5
20260502064741 17 178 0.0 3.2 0.00 0.00 0.00 55 1024.5
20260502064720 17 163 0.0 3.2 0.00 0.00 0.00 57 1024.4
20260502064704 17 121 0.0 3.2 0.00 0.00 0.00 57 1024.5
20260502064648 17 121 0.0 3.2 0.00 0.00 0.00 57 1024.5
20260502064400 17 99 0.0 3.2 0.00 0.00 0.00 55 1024.6
20260502064341 17 162 0.0 3.2 0.00 0.00 0.00 55 1024.5
20260502064325 17 186 0.0 3.2 0.00 0.00 0.00 56 1024.5
20260502064310 17 144 0.0 3.2 0.00 0.00 0.00 56 1024.4
20260502064255 17 192 0.0 3.2 0.00 0.00 0.00 56 1024.4
20260502064027 17 175 0.0 1.6 0.00 0.00 0.00 56 1024.4
20260502064012 17 172 0.0 1.6 0.00 0.00 0.00 57 1024.6
20260502063736 16 181 0.0 1.6 0.00 0.00 0.00 58 1024.4
20260502063720 16 176 0.0 1.6 0.00 0.00 0.00 58 1024.4
20260502063452 17 160 0.0 1.6 0.00 0.00 0.00 58 1024.4
20260502063130 16 177 0.0 1.6 0.00 0.00 0.00 58 1024.6
20260502063030 16 173 0.0 1.6 0.00 0.00 0.00 58 1024.9
20260502062950 16 158 0.0 1.6 0.00 0.00 0.00 58 1024.9
20260502062923 17 160 0.0 1.6 0.00 0.00 0.00 59 1024.5
20260502062817 16 180 0.0 1.6 0.00 0.00 0.00 59 1024.5
20260502062719 16 175 0.0 1.6 0.00 0.00 0.00 58 1024.4
20260502062656 16 168 0.0 1.6 0.00 0.00 0.00 59 1024.6
20260502062640 16 169 0.0 1.6 0.00 0.00 0.00 59 1024.5
20260502062627 16 169 0.0 1.6 0.00 0.00 0.00 60 1024.5
20260502062313 16 173 0.0 1.6 0.00 0.00 0.00 59 1024.3
20260502062212 16 179 0.0 1.6 0.00 0.00 0.00 59 1024.4
20260502062113 16 188 0.0 1.6 0.00 0.00 0.00 60 1024.6
20260502062052 16 182 0.0 1.6 0.00 0.00 0.00 60 1024.5
20260502062037 16 167 0.0 1.6 0.00 0.00 0.00 60 1024.5
20260502062028 16 180 0.0 1.6 0.00 0.00 0.00 59 1024.4
20260502061746 16 89 1.6 1.6 0.00 0.00 0.00 58 1024.5
20260502061738 16 163 0.0 1.6 0.00 0.00 0.00 59 1024.5
20260502061722 16 155 0.0 1.6 0.00 0.00 0.00 58 1024.7
20260502061707 16 126 0.0 1.6 0.00 0.00 0.00 58 1024.6
20260502061440 16 130 0.0 1.6 0.00 0.00 0.00 58 1024.5
20260502061422 16 180 0.0 1.6 0.00 0.00 0.00 59 1024.4
20260502061101 16 152 0.0 1.6 0.00 0.00 0.00 60 1024.5
20260502061002 16 155 0.0 1.6 0.00 0.00 0.00 61 1024.6
20260502060933 16 164 0.0 1.6 0.00 0.00 0.00 62 1024.4
20260502060853 16 185 0.0 1.6 0.00 0.00 0.00 61 1024.4
20260502060752 15 187 0.0 1.6 0.00 0.00 0.00 62 1024.7
20260502060647 15 183 0.0 1.6 0.00 0.00 0.00 62 1024.4
20260502060546 15 180 0.0 1.6 0.00 0.00 0.00 62 1024.5
20260502060440 15 145 0.0 1.6 0.00 0.00 0.00 61 1024.3
20260502060428 15 156 0.0 1.6 0.00 0.00 0.00 61 1024.5
20260502060341 15 178 0.0 1.6 0.00 0.00 0.00 61 1024.5
20260502060242 15 173 0.0 1.6 0.00 0.00 0.00 62 1024.3
20260502060142 15 182 0.0 1.6 0.00 0.00 0.00 63 1024.6
20260502060040 15 186 0.0 1.6 0.00 0.00 0.00 63 1024.7
20260502055923 15 186 0.0 1.6 0.00 0.00 0.00 63 1024.3
20260502055837 15 184 0.0 1.6 0.00 0.00 0.00 63 1024.6
20260502055805 15 169 0.0 1.6 0.00 0.00 0.00 64 1024.7
20260502055749 15 166 0.0 1.6 0.00 0.00 0.00 65 1024.5
20260502055733 15 179 0.0 1.6 0.00 0.00 0.00 65 1024.5
20260502055509 15 182 0.0 1.6 0.00 0.00 0.00 65 1024.4
20260502055456 15 182 0.0 1.6 0.00 0.00 0.00 64 1024.4
20260502055444 14 185 0.0 1.6 0.00 0.00 0.00 65 1024.4
20260502055426 14 185 0.0 1.6 0.00 0.00 0.00 66 1024.7
20260502055202 14 185 0.0 1.6 0.00 0.00 0.00 66 1024.5
20260502055147 14 144 0.0 1.6 0.00 0.00 0.00 67 1024.6
20260502055131 13 170 0.0 1.6 0.00 0.00 0.00 66 1024.5
20260502054828 13 144 0.0 1.6 0.00 0.00 0.00 66 1024.4
20260502054756 13 136 0.0 1.6 0.00 0.00 0.00 65 1024.6
20260502054742 13 136 0.0 1.6 0.00 0.00 0.00 66 1024.4
20260502054417 13 168 0.0 1.6 0.00 0.00 0.00 65 1024.5
20260502054316 13 106 0.0 1.6 0.00 0.00 0.00 66 1024.7
20260502054217 13 119 0.0 1.6 0.00 0.00 0.00 66 1024.7
20260502054116 13 126 0.0 1.6 0.00 0.00 0.00 67 1024.3
20260502054055 13 166 0.0 1.6 0.00 0.00 0.00 67 1024.4
20260502054031 13 162 0.0 1.6 0.00 0.00 0.00 68 1024.4
20260502053659 12 143 0.0 1.6 0.00 0.00 0.00 68 1024.4
20260502053633 12 140 0.0 1.6 0.00 0.00 0.00 69 1024.3
20260502053617 12 157 0.0 1.6 0.00 0.00 0.00 69 1024.5
20260502053601 12 166 0.0 1.6 0.00 0.00 0.00 70 1024.4
20260502053554 12 166 0.0 1.6 0.00 0.00 0.00 70 1024.4
20260502053314 12 124 0.0 1.6 0.00 0.00 0.00 70 1024.5
20260502053258 12 148 0.0 1.6 0.00 0.00 0.00 70 1024.4
20260502053022 12 137 0.0 1.6 0.00 0.00 0.00 71 1024.3
20260502053015 12 137 0.0 1.6 0.00 0.00 0.00 71 1024.3
20260502052730 12 141 0.0 1.6 0.00 0.00 0.00 71 1024.4
20260502052714 12 122 1.6 1.6 0.00 0.00 0.00 73 1024.5
20260502052434 12 160 0.0 0.0 0.00 0.00 0.00 73 1024.3
20260502052428 12 160 0.0 0.0 0.00 0.00 0.00 72 1024.3
20260502052410 12 166 0.0 0.0 0.00 0.00 0.00 74 1024.4
20260502052355 12 170 0.0 0.0 0.00 0.00 0.00 74 1024.5
20260502052120 12 170 0.0 0.0 0.00 0.00 0.00 75 1024.5
20260502052103 12 164 0.0 0.0 0.00 0.00 0.00 76 1024.3
20260502051837 11 170 0.0 0.0 0.00 0.00 0.00 76 1024.5
20260502051825 11 170 0.0 0.0 0.00 0.00 0.00 75 1024.5
20260502051809 11 169 0.0 0.0 0.00 0.00 0.00 75 1024.5
20260502051752 11 170 0.0 0.0 0.00 0.00 0.00 76 1024.5
20260502051735 11 170 0.0 0.0 0.00 0.00 0.00 75 1024.3
20260502051508 11 170 0.0 0.0 0.00 0.00 0.00 75 1024.5
20260502051227 9 169 0.0 0.0 0.00 0.00 0.00 82 1024.1
20260502051223 11 172 0.0 0.0 0.00 0.00 0.00 75 1024.5
20260502051212 11 169 0.0 0.0 0.00 0.00 0.00 76 1024.5
20260502051156 11 168 0.0 0.0 0.00 0.00 0.00 76 1024.5
20260502051139 11 166 0.0 0.0 0.00 0.00 0.00 77 1024.5
20260502051116 11 160 0.0 0.0 0.00 0.00 0.00 76 1024.6
20260502051100 11 163 0.0 0.0 0.00 0.00 0.00 75 1024.5
20260502051043 11 173 0.0 0.0 0.00 0.00 0.00 75 1024.4
20260502050808 11 173 0.0 0.0 0.00 0.00 0.00 75 1024.4
20260502050540 11 171 0.0 0.0 0.00 0.00 0.00 75 1024.5
20260502050522 11 160 0.0 0.0 0.00 0.00 0.00 76 1024.4
20260502050248 10 165 0.0 0.0 0.00 0.00 0.00 77 1024.5
20260502050023 10 167 0.0 0.0 0.00 0.00 0.00 78 1024.5
20260502050007 10 168 0.0 0.0 0.00 0.00 0.00 78 1024.6
20260502050000 10 169 0.0 0.0 0.00 0.00 0.00 78 1024.6
20260502045944 10 167 0.0 0.0 0.00 0.00 0.00 78 1024.5
20260502045928 10 167 0.0 0.0 0.00 0.00 0.00 79 1024.5
20260502045913 10 169 0.0 0.0 0.00 0.00 0.00 79 1024.5
20260502045635 10 167 0.0 0.0 0.00 0.00 0.00 80 1024.4
20260502045403 9 169 0.0 0.0 0.00 0.00 0.00 81 1024.3
20260502045348 9 170 0.0 0.0 0.00 0.00 0.00 81 1024.4
20260502045332 9 170 0.0 0.0 0.00 0.00 0.00 81 1024.4
20260502044841 9 169 0.0 0.0 0.00 0.00 0.00 82 1024.1
20260502044740 9 168 0.0 0.0 0.00 0.00 0.00 82 1024.2
20260502044642 8 168 0.0 0.0 0.00 0.00 0.00 82 1024.2
20260502044540 8 169 0.0 0.0 0.00 0.00 0.00 83 1024.3
20260502044440 8 169 0.0 0.0 0.00 0.00 0.00 83 1024.1
20260502044340 8 169 0.0 0.0 0.00 0.00 0.00 84 1024.1
20260502044241 8 169 0.0 0.0 0.00 0.00 0.00 84 1024.3
20260502044216 8 171 0.0 0.0 0.00 0.00 0.00 84 1024.3
20260502044200 8 171 0.0 0.0 0.00 0.00 0.00 85 1024.3
20260502043842 8 171 0.0 0.0 0.00 0.00 0.00 85 1024.5
20260502043740 8 170 0.0 0.0 0.00 0.00 0.00 86 1024.2
20260502043706 7 171 0.0 0.0 0.00 0.00 0.00 88 1024.3
20260502043700 8 173 0.0 0.0 0.00 0.00 0.00 86 1024.3
20260502043644 8 173 0.0 0.0 0.00 0.00 0.00 86 1024.3
20260502043629 7 173 0.0 0.0 0.00 0.00 0.00 87 1024.4
20260502043613 7 173 0.0 0.0 0.00 0.00 0.00 87 1024.4
20260502043343 7 173 0.0 0.0 0.00 0.00 0.00 87 1024.4
20260502043327 7 173 0.0 0.0 0.00 0.00 0.00 87 1024.4
20260502043312 7 172 0.0 0.0 0.00 0.00 0.00 87 1024.5
20260502043256 7 172 0.0 0.0 0.00 0.00 0.00 88 1024.3
20260502042718 7 174 0.0 0.0 0.00 0.00 0.00 88 1024.4
20260502042617 7 174 0.0 0.0 0.00 0.00 0.00 89 1024.3
20260502042542 7 174 0.0 0.0 0.00 0.00 0.00 89 1024.4
20260502042527 7 174 0.0 0.0 0.00 0.00 0.00 89 1024.3
20260502042511 7 174 0.0 0.0 0.00 0.00 0.00 90 1024.0
20260502042502 7 174 0.0 0.0 0.00 0.00 0.00 90 1024.0
20260502042443 7 174 0.0 0.0 0.00 0.00 0.00 90 1024.3
20260502042427 7 174 0.0 0.0 0.00 0.00 0.00 91 1024.1
20260502042412 7 174 0.0 0.0 0.00 0.00 0.00 92 1024.1
20260502042356 6 174 0.0 0.0 0.00 0.00 0.00 92 1024.4
20260502042341 6 174 0.0 0.0 0.00 0.00 0.00 92 1024.3
20260502042113 6 174 0.0 0.0 0.00 0.00 0.00 93 1024.1
20260502042057 6 174 0.0 0.0 0.00 0.00 0.00 94 1024.2
20260502042041 6 174 0.0 0.0 0.00 0.00 0.00 94 1024.4
20260502041759 6 174 0.0 0.0 0.00 0.00 0.00 94 1024.2
20260502041741 6 174 0.0 0.0 0.00 0.00 0.00 94 1024.1
20260502041024 5 174 0.0 0.0 0.00 0.00 0.00 95 1024.1
20260502040711 5 174 0.0 0.0 0.00 0.00 0.00 95 1024.3
20260502040611 5 174 0.0 0.0 0.00 0.00 0.00 95 1024.0
20260502040509 5 174 0.0 0.0 0.00 0.00 0.00 95 1024.1
20260502040410 5 174 0.0 0.0 0.00 0.00 0.00 95 1024.2
20260502040311 5 174 0.0 0.0 0.00 0.00 0.00 95 1024.2
20260502040210 5 174 0.0 0.0 0.00 0.00 0.00 96 1024.0
20260502040110 5 174 0.0 0.0 0.00 0.00 0.00 96 1023.9
20260502040011 5 174 0.0 0.0 0.00 0.00 0.00 96 1024.1
20260502035906 5 174 0.0 0.0 0.00 0.00 0.00 96 1024.1
20260502035805 5 174 0.0 0.0 0.00 0.00 0.00 96 1024.2
20260502035705 5 174 0.0 0.0 0.00 0.00 0.00 96 1024.0
20260502035608 5 174 0.0 0.0 0.00 0.00 0.00 96 1024.0
20260502035551 5 174 0.0 0.0 0.00 0.00 0.00 96 1024.0
20260502035534 5 174 0.0 0.0 0.00 0.00 0.00 96 1024.2
20260502035519 5 174 0.0 0.0 0.00 0.00 0.00 96 1023.8
20260502035205 5 174 0.0 0.0 0.00 0.00 0.00 96 1024.0
20260502035106 5 174 0.0 0.0 0.00 0.00 0.00 96 1024.2
20260502035007 5 174 0.0 0.0 0.00 0.00 0.00 96 1024.1
20260502034906 5 174 0.0 0.0 0.00 0.00 0.00 96 1024.1
20260502034815 5 174 0.0 0.0 0.00 0.00 0.00 96 1023.9
20260502034807 5 174 0.0 0.0 0.00 0.00 0.00 96 1023.9
20260502034705 5 174 0.0 0.0 0.00 0.00 0.00 96 1023.9
20260502034556 5 174 0.0 0.0 0.00 0.00 0.00 96 1024.1
20260502034454 5 174 0.0 0.0 0.00 0.00 0.00 96 1024.1
20260502034353 5 174 0.0 0.0 0.00 0.00 0.00 96 1024.0
20260502034314 5 174 0.0 0.0 0.00 0.00 0.00 96 1023.9
20260502034254 5 174 0.0 0.0 0.00 0.00 0.00 96 1023.9
20260502034153 5 174 0.0 0.0 0.00 0.00 0.00 96 1024.0
20260502034053 5 174 0.0 0.0 0.00 0.00 0.00 96 1024.2
20260502033948 5 174 0.0 0.0 0.00 0.00 0.00 96 1023.9
20260502033847 5 174 0.0 0.0 0.00 0.00 0.00 96 1024.0
20260502033808 5 174 0.0 0.0 0.00 0.00 0.00 96 1024.0
20260502033803 5 174 0.0 0.0 0.00 0.00 0.00 96 1023.9
20260502033756 5 174 0.0 0.0 0.00 0.00 0.00 97 1024.0
20260502033738 5 174 0.0 0.0 0.00 0.00 0.00 96 1023.8
20260502033724 5 174 0.0 0.0 0.00 0.00 0.00 96 1023.9
20260502033709 4 174 0.0 0.0 0.00 0.00 0.00 96 1024.0
20260502033436 4 174 0.0 0.0 0.00 0.00 0.00 96 1024.0
20260502033426 4 174 0.0 0.0 0.00 0.00 0.00 96 1024.2
20260502033409 4 174 0.0 0.0 0.00 0.00 0.00 96 1024.1
20260502033353 4 174 0.0 0.0 0.00 0.00 0.00 96 1024.1
20260502033337 4 174 0.0 0.0 0.00 0.00 0.00 96 1024.0
20260502033322 5 174 0.0 0.0 0.00 0.00 0.00 96 1023.9
20260502032555 5 174 0.0 0.0 0.00 0.00 0.00 95 1023.9
20260502032548 5 174 0.0 0.0 0.00 0.00 0.00 96 1024.0
20260502032532 5 174 0.0 0.0 0.00 0.00 0.00 95 1023.8
20260502032517 5 174 0.0 0.0 0.00 0.00 0.00 95 1023.9
20260502032225 4 174 0.0 0.0 0.00 0.00 0.00 95 1024.2
20260502032200 4 174 0.0 0.0 0.00 0.00 0.00 95 1024.1
20260502032144 4 174 0.0 0.0 0.00 0.00 0.00 95 1024.1
20260502031827 4 174 0.0 0.0 0.00 0.00 0.00 95 1023.9
20260502031758 4 174 0.0 0.0 0.00 0.00 0.00 95 1023.9
20260502031725 4 174 0.0 0.0 0.00 0.00 0.00 94 1024.1
20260502031623 4 174 0.0 0.0 0.00 0.00 0.00 94 1023.8
20260502031523 5 174 0.0 0.0 0.00 0.00 0.00 94 1024.0
20260502031422 5 174 0.0 0.0 0.00 0.00 0.00 94 1024.0
20260502031323 5 174 0.0 0.0 0.00 0.00 0.00 94 1024.0
20260502031255 5 174 0.0 0.0 0.00 0.00 0.00 94 1024.0
20260502031225 5 174 0.0 0.0 0.00 0.00 0.00 94 1024.1
20260502031119 5 174 0.0 0.0 0.00 0.00 0.00 94 1024.2
20260502031013 5 174 0.0 0.0 0.00 0.00 0.00 95 1023.9
20260502030912 5 174 0.0 0.0 0.00 0.00 0.00 95 1024.2
20260502030815 5 174 0.0 0.0 0.00 0.00 0.00 96 1023.8
20260502030744 5 174 0.0 0.0 0.00 0.00 0.00 96 1023.8
20260502030713 5 174 0.0 0.0 0.00 0.00 0.00 96 1024.0
20260502030613 5 174 0.0 0.0 0.00 0.00 0.00 96 1023.9
20260502030511 5 174 0.0 0.0 0.00 0.00 0.00 96 1024.0
20260502030446 5 174 0.0 0.0 0.00 0.00 0.00 96 1024.2
20260502030417 5 174 0.0 0.0 0.00 0.00 0.00 96 1024.0
20260502030404 5 174 0.0 0.0 0.00 0.00 0.00 96 1024.0
20260502030128 5 174 0.0 0.0 0.00 0.00 0.00 96 1023.9
20260502025739 5 174 0.0 0.0 0.00 0.00 0.00 96 1023.9
20260502025700 5 174 0.0 0.0 0.00 0.00 0.00 95 1024.1
20260502025601 5 174 0.0 0.0 0.00 0.00 0.00 95 1024.0
20260502025501 5 174 0.0 0.0 0.00 0.00 0.00 95 1023.9
20260502025401 5 174 0.0 0.0 0.00 0.00 0.00 95 1024.0
20260502025306 4 174 0.0 0.0 0.00 0.00 0.00 95 1024.0
20260502025232 4 174 0.0 0.0 0.00 0.00 0.00 95 1024.0
20260502025202 4 174 0.0 0.0 0.00 0.00 0.00 95 1024.0
20260502025100 4 174 0.0 0.0 0.00 0.00 0.00 95 1023.8
20260502025000 4 174 0.0 0.0 0.00 0.00 0.00 95 1024.0
20260502024859 4 174 0.0 0.0 0.00 0.00 0.00 94 1024.0
20260502024759 4 174 0.0 0.0 0.00 0.00 0.00 94 1023.7
20260502024732 4 174 0.0 0.0 0.00 0.00 0.00 94 1024.1
20260502024649 5 174 0.0 0.0 0.00 0.00 0.00 94 1024.1
20260502024613 5 174 0.0 0.0 0.00 0.00 0.00 94 1024.2
20260502024607 5 174 0.0 0.0 0.00 0.00 0.00 94 1024.2
20260502024551 5 174 0.0 0.0 0.00 0.00 0.00 94 1023.9
20260502024536 5 174 0.0 0.0 0.00 0.00 0.00 94 1023.9
20260502024520 5 174 0.0 0.0 0.00 0.00 0.00 94 1024.2
20260502024251 5 174 0.0 0.0 0.00 0.00 0.00 94 1024.2
20260502024236 5 174 0.0 0.0 0.00 0.00 0.00 94 1024.0
20260502024214 5 174 0.0 0.0 0.00 0.00 0.00 94 1024.0
20260502023926 5 174 0.0 0.0 0.00 0.00 0.00 94 1024.0
20260502023915 5 174 0.0 0.0 0.00 0.00 0.00 94 1024.0
20260502023335 5 174 0.0 0.0 0.00 0.00 0.00 94 1023.8
20260502023313 5 174 0.0 0.0 0.00 0.00 0.00 94 1024.0
20260502023252 5 174 0.0 0.0 0.00 0.00 0.00 94 1024.0
20260502023238 5 174 0.0 0.0 0.00 0.00 0.00 94 1024.1
20260502023223 5 174 0.0 0.0 0.00 0.00 0.00 94 1024.0
20260502022959 5 174 0.0 0.0 0.00 0.00 0.00 94 1024.1
20260502022942 5 174 0.0 0.0 0.00 0.00 0.00 94 1024.0
20260502022927 5 174 0.0 0.0 0.00 0.00 0.00 94 1024.0
20260502022624 5 174 0.0 0.0 0.00 0.00 0.00 94 1023.9
20260502022544 5 174 0.0 0.0 0.00 0.00 0.00 95 1023.8
20260502022537 5 174 0.0 0.0 0.00 0.00 0.00 95 1024.2
20260502022522 5 174 0.0 0.0 0.00 0.00 0.00 95 1023.9
20260502022508 5 174 0.0 0.0 0.00 0.00 0.00 95 1024.2
20260502022441 5 174 0.0 0.0 0.00 0.00 0.00 95 1023.9
20260502022209 5 174 0.0 0.0 0.00 0.00 0.00 95 1023.9
20260502022152 5 174 0.0 0.0 0.00 0.00 0.00 95 1024.0
20260502021914 5 174 0.0 0.0 0.00 0.00 0.00 95 1023.8
20260502021612 5 174 0.0 0.0 0.00 0.00 0.00 95 1024.0
20260502021513 5 174 0.0 0.0 0.00 0.00 0.00 95 1023.8
20260502021412 5 174 0.0 0.0 0.00 0.00 0.00 95 1023.9
20260502021312 5 174 0.0 0.0 0.00 0.00 0.00 95 1023.8
20260502021212 5 174 0.0 0.0 0.00 0.00 0.00 95 1024.0
20260502021157 5 174 0.0 0.0 0.00 0.00 0.00 95 1024.0
20260502021122 5 174 0.0 0.0 0.00 0.00 0.00 94 1023.8
20260502021116 5 174 0.0 0.0 0.00 0.00 0.00 94 1023.9
20260502021105 5 174 0.0 0.0 0.00 0.00 0.00 94 1024.0
20260502021056 5 174 0.0 0.0 0.00 0.00 0.00 94 1023.8
20260502021040 5 174 0.0 0.0 0.00 0.00 0.00 94 1023.9
20260502021024 5 174 0.0 0.0 0.00 0.00 0.00 94 1024.1
20260502021008 5 174 0.0 0.0 0.00 0.00 0.00 94 1023.8
20260502020741 5 174 0.0 0.0 0.00 0.00 0.00 94 1023.9
20260502020725 5 174 0.0 0.0 0.00 0.00 0.00 94 1024.0
20260502020709 5 174 0.0 0.0 0.00 0.00 0.00 94 1024.0
20260502020652 5 174 0.0 0.0 0.00 0.00 0.00 94 1023.8
20260502020628 5 174 0.0 0.0 0.00 0.00 0.00 94 1024.0
20260502020349 5 174 0.0 0.0 0.00 0.00 0.00 94 1024.0
20260502015852 5 174 0.0 0.0 0.00 0.00 0.00 94 1024.0
20260502015537 5 174 0.0 0.0 0.00 0.00 0.00 94 1023.9
20260502015437 5 174 0.0 0.0 0.00 0.00 0.00 94 1023.8
20260502015338 5 174 0.0 0.0 0.00 0.00 0.00 94 1024.0
20260502015238 5 174 0.0 0.0 0.00 0.00 0.00 94 1024.1
20260502015137 5 174 0.0 0.0 0.00 0.00 0.00 94 1024.0
20260502015037 5 174 0.0 0.0 0.00 0.00 0.00 94 1024.1
20260502015002 5 174 0.0 0.0 0.00 0.00 0.00 94 1024.1
20260502014946 5 174 0.0 0.0 0.00 0.00 0.00 94 1024.2
20260502014929 5 174 0.0 0.0 0.00 0.00 0.00 94 1024.1
20260502014700 5 174 0.0 0.0 0.00 0.00 0.00 94 1024.0
20260502014646 5 174 0.0 0.0 0.00 0.00 0.00 93 1023.8
20260502014407 5 174 0.0 0.0 0.00 0.00 0.00 93 1023.9
20260502014351 5 174 0.0 0.0 0.00 0.00 0.00 93 1024.0
20260502014124 5 174 0.0 0.0 0.00 0.00 0.00 93 1024.2
20260502014014 5 174 0.0 0.0 0.00 0.00 0.00 93 1024.1
20260502013948 5 174 0.0 0.0 0.00 0.00 0.00 93 1024.0
20260502013931 5 174 0.0 0.0 0.00 0.00 0.00 93 1023.9
20260502013612 5 174 0.0 0.0 0.00 0.00 0.00 93 1024.0
20260502013600 5 174 0.0 0.0 0.00 0.00 0.00 93 1024.0
20260502013511 5 174 0.0 0.0 0.00 0.00 0.00 93 1024.1
20260502013407 5 174 0.0 0.0 0.00 0.00 0.00 93 1024.1
20260502013306 5 174 0.0 0.0 0.00 0.00 0.00 93 1024.1
20260502013205 5 174 0.0 0.0 0.00 0.00 0.00 93 1024.1
20260502013106 5 174 0.0 0.0 0.00 0.00 0.00 93 1024.0
20260502012953 5 174 0.0 0.0 0.00 0.00 0.00 93 1024.1
20260502012853 5 174 0.0 0.0 0.00 0.00 0.00 93 1024.2
20260502012754 5 174 0.0 0.0 0.00 0.00 0.00 93 1024.2
20260502012654 5 174 0.0 0.0 0.00 0.00 0.00 93 1024.2
20260502012552 5 174 0.0 0.0 0.00 0.00 0.00 93 1024.0
20260502012453 5 174 0.0 0.0 0.00 0.00 0.00 93 1024.1
20260502012352 5 174 0.0 0.0 0.00 0.00 0.00 92 1024.1
20260502012255 5 174 0.0 0.0 0.00 0.00 0.00 92 1024.1
20260502012239 5 174 0.0 0.0 0.00 0.00 0.00 92 1023.9
20260502012214 5 174 0.0 0.0 0.00 0.00 0.00 92 1024.0
20260502011854 5 174 0.0 0.0 0.00 0.00 0.00 92 1024.1
20260502011752 5 174 0.0 0.0 0.00 0.00 0.00 92 1023.9
20260502011653 5 174 0.0 0.0 0.00 0.00 0.00 92 1024.1
20260502011622 5 174 0.0 0.0 0.00 0.00 0.00 92 1024.2
20260502011605 5 174 0.0 0.0 0.00 0.00 0.00 92 1024.2
20260502011549 5 174 0.0 0.0 0.00 0.00 0.00 92 1024.1
20260502011300 5 174 0.0 0.0 0.00 0.00 0.00 92 1024.0
20260502011013 6 174 0.0 0.0 0.00 0.00 0.00 92 1024.5
20260502010958 6 174 0.0 0.0 0.00 0.00 0.00 92 1024.2
20260502010637 6 174 0.0 0.0 0.00 0.00 0.00 92 1024.2
20260502010611 6 174 0.0 0.0 0.00 0.00 0.00 92 1024.2
20260502010536 6 174 0.0 0.0 0.00 0.00 0.00 92 1024.3
20260502010435 6 174 0.0 0.0 0.00 0.00 0.00 92 1024.0
20260502010335 6 174 0.0 0.0 0.00 0.00 0.00 92 1024.2
20260502010236 6 174 0.0 0.0 0.00 0.00 0.00 92 1024.1
20260502010136 6 174 0.0 0.0 0.00 0.00 0.00 92 1023.9
20260502010109 6 174 0.0 0.0 0.00 0.00 0.00 92 1023.9
20260502010028 6 174 0.0 0.0 0.00 0.00 0.00 92 1024.2
20260502005928 6 174 0.0 0.0 0.00 0.00 0.00 92 1024.0
20260502005851 6 174 0.0 0.0 0.00 0.00 0.00 92 1024.2
20260502005844 6 174 0.0 0.0 0.00 0.00 0.00 92 1024.1
20260502005829 6 174 0.0 0.0 0.00 0.00 0.00 92 1024.0
20260502005812 6 174 0.0 0.0 0.00 0.00 0.00 92 1024.2
20260502005513 6 174 0.0 0.0 0.00 0.00 0.00 92 1024.1
20260502005413 6 174 0.0 0.0 0.00 0.00 0.00 92 1024.1
20260502005307 6 174 0.0 0.0 0.00 0.00 0.00 92 1024.2
20260502005207 6 174 0.0 0.0 0.00 0.00 0.00 92 1024.1
20260502005048 6 174 0.0 0.0 0.00 0.00 0.00 92 1024.2
20260502004317 6 174 0.0 0.0 0.00 0.00 0.00 91 1024.5
20260502004217 6 174 0.0 0.0 0.00 0.00 0.00 91 1024.3
20260502004118 6 174 0.0 0.0 0.00 0.00 0.00 91 1024.4
20260502004006 6 174 0.0 0.0 0.00 0.00 0.00 91 1024.1
20260502003950 6 174 0.0 0.0 0.00 0.00 0.00 91 1024.2
20260502003941 6 174 0.0 0.0 0.00 0.00 0.00 91 1024.3
20260502003924 6 174 0.0 0.0 0.00 0.00 0.00 91 1024.0
20260502003907 6 174 0.0 0.0 0.00 0.00 0.00 91 1023.9
20260502003854 6 174 0.0 0.0 0.00 0.00 0.00 91 1024.3
20260502003844 6 174 0.0 0.0 0.00 0.00 0.00 91 1024.3
20260502003829 6 174 0.0 0.0 0.00 0.00 0.00 91 1024.3
20260502003551 6 174 0.0 0.0 0.00 0.00 0.00 91 1024.2
20260502003032 6 174 0.0 0.0 0.00 0.00 0.00 91 1024.2
20260502002929 6 174 0.0 0.0 0.00 0.00 0.00 91 1024.3
20260502002823 6 174 0.0 0.0 0.00 0.00 0.00 91 1024.0
20260502002718 6 174 0.0 0.0 0.00 0.00 0.00 91 1024.4
20260502002655 6 174 0.0 0.0 0.00 0.00 0.00 91 1024.2
20260502002639 6 174 0.0 0.0 0.00 0.00 0.00 91 1024.3
20260502002403 6 174 0.0 0.0 0.00 0.00 0.00 91 1024.3
20260502002353 6 174 0.0 0.0 0.00 0.00 0.00 91 1024.4
20260502002338 6 174 0.0 0.0 0.00 0.00 0.00 91 1024.2
20260502002112 6 174 0.0 0.0 0.00 0.00 0.00 91 1024.3
20260502002012 6 174 0.0 0.0 0.00 0.00 0.00 91 1024.2
20260502001912 6 174 0.0 0.0 0.00 0.00 0.00 91 1024.4
20260502001806 6 174 0.0 0.0 0.00 0.00 0.00 91 1024.2
20260502001706 6 174 0.0 0.0 0.00 0.00 0.00 90 1024.3
20260502001613 6 174 0.0 0.0 0.00 0.00 0.00 90 1024.3
20260502001606 6 174 0.0 0.0 0.00 0.00 0.00 90 1024.3
20260502001443 6 174 0.0 0.0 0.00 0.00 0.00 90 1024.2
20260502001342 6 174 0.0 0.0 0.00 0.00 0.00 90 1024.1
20260502001252 6 174 0.0 0.0 0.00 0.00 0.00 89 1024.2
20260502001247 6 174 0.0 0.0 0.00 0.00 0.00 90 1024.3
20260502001231 6 174 0.0 0.0 0.00 0.00 0.00 90 1024.3
20260502001215 6 174 0.0 0.0 0.00 0.00 0.00 90 1024.3
20260502001208 6 174 0.0 0.0 0.00 0.00 0.00 89 1024.3
20260502000931 6 174 0.0 0.0 0.00 0.00 0.00 89 1024.2
20260502000914 6 174 0.0 0.0 0.00 0.00 0.00 89 1024.1
20260502000858 6 174 0.0 0.0 0.00 0.00 0.00 89 1024.3
20260502000843 6 174 0.0 0.0 0.00 0.00 0.00 89 1024.3
20260502000835 6 174 0.0 0.0 0.00 0.00 0.00 89 1024.4
20260502000348 6 174 0.0 0.0 0.00 0.00 0.00 89 1024.2
20260502000333 6 174 0.0 0.0 0.00 0.00 0.00 89 1024.2
20260502000317 6 174 0.0 0.0 0.00 0.00 0.00 89 1024.2
20260502000038 6 174 0.0 0.0 0.00 0.00 0.00 89 1024.2
20260501235937 6 174 0.0 0.0 0.00 0.00 0.00 89 1024.1
20260501235836 7 174 0.0 0.0 0.00 0.00 0.00 89 1024.1
20260501235735 7 174 0.0 0.0 0.00 0.00 0.00 89 1024.3
20260501235637 7 174 0.0 0.0 0.00 0.00 0.00 89 1024.3
20260501235555 7 174 0.0 0.0 0.00 0.00 0.00 88 1024.3
20260501235536 7 174 0.0 0.0 0.00 0.00 0.00 89 1024.5
20260501235432 7 174 0.0 0.0 0.00 0.00 0.00 89 1024.4
20260501235331 7 174 0.0 0.0 0.00 0.00 0.00 88 1024.1
20260501235315 7 174 0.0 0.0 0.00 0.00 0.00 88 1024.2
20260501235258 7 174 0.0 0.0 0.00 0.00 0.00 88 1024.1
20260501235242 7 174 0.0 0.0 0.00 0.00 0.00 88 1024.1
20260501234931 7 174 0.0 0.0 0.00 0.00 0.00 88 1024.4
20260501234835 7 174 0.0 0.0 0.00 0.00 0.00 89 1024.2
20260501234831 7 174 0.0 0.0 0.00 0.00 0.00 89 1024.4
20260501234815 7 174 0.0 0.0 0.00 0.00 0.00 89 1024.1
20260501234800 7 174 0.0 0.0 0.00 0.00 0.00 89 1024.2
20260501234521 7 174 0.0 0.0 0.00 0.00 0.00 89 1024.2
20260501234455 7 174 0.0 0.0 0.00 0.00 0.00 89 1024.3
20260501234437 7 174 0.0 0.0 0.00 0.00 0.00 88 1024.4
20260501234117 7 174 0.0 0.0 0.00 0.00 0.00 88 1024.3
20260501234014 7 174 0.0 0.0 0.00 0.00 0.00 88 1024.2
20260501233913 7 174 0.0 0.0 0.00 0.00 0.00 88 1024.2
20260501233813 7 174 0.0 0.0 0.00 0.00 0.00 88 1024.1
20260501233712 7 174 0.0 0.0 0.00 0.00 0.00 89 1024.2
20260501233613 7 174 0.0 0.0 0.00 0.00 0.00 88 1024.2
20260501233512 7 174 0.0 0.0 0.00 0.00 0.00 88 1024.1
20260501233412 7 174 0.0 0.0 0.00 0.00 0.00 88 1024.3
20260501233311 7 174 0.0 0.0 0.00 0.00 0.00 88 1024.2
20260501233211 7 174 0.0 0.0 0.00 0.00 0.00 88 1024.3
20260501233107 7 174 0.0 0.0 0.00 0.00 0.00 88 1024.4
20260501233007 7 174 0.0 0.0 0.00 0.00 0.00 88 1024.2
20260501232907 7 174 0.0 0.0 0.00 0.00 0.00 88 1024.2
20260501232806 7 174 0.0 0.0 0.00 0.00 0.00 88 1024.3
20260501232705 7 174 0.0 0.0 0.00 0.00 0.00 88 1024.4
20260501232603 7 174 0.0 0.0 0.00 0.00 0.00 88 1024.4
20260501232530 7 174 0.0 0.0 0.00 0.00 0.00 88 1024.4
20260501232503 7 174 0.0 0.0 0.00 0.00 0.00 88 1024.4
20260501232400 7 174 0.0 0.0 0.00 0.00 0.00 88 1024.2
20260501232300 7 174 0.0 0.0 0.00 0.00 0.00 88 1024.2
20260501232147 7 174 0.0 0.0 0.00 0.00 0.00 87 1024.4
20260501232046 7 174 0.0 0.0 0.00 0.00 0.00 87 1024.2
20260501232021 7 174 0.0 0.0 0.00 0.00 0.00 87 1024.5
20260501231947 7 174 0.0 0.0 0.00 0.00 0.00 87 1024.5
20260501231846 7 174 0.0 0.0 0.00 0.00 0.00 87 1024.4
20260501231745 7 174 0.0 0.0 0.00 0.00 0.00 87 1024.2
20260501231646 7 174 0.0 0.0 0.00 0.00 0.00 87 1024.2
20260501231520 7 174 0.0 0.0 0.00 0.00 0.00 87 1024.3
20260501231447 7 174 0.0 0.0 0.00 0.00 0.00 87 1024.3
20260501231346 7 174 0.0 0.0 0.00 0.00 0.00 87 1024.5
20260501231246 7 174 0.0 0.0 0.00 0.00 0.00 87 1024.3
20260501231141 7 174 0.0 0.0 0.00 0.00 0.00 87 1024.2
20260501231016 7 174 0.0 0.0 0.00 0.00 0.00 87 1024.4
20260501231007 7 174 0.0 0.0 0.00 0.00 0.00 87 1024.4
20260501230950 7 174 0.0 0.0 0.00 0.00 0.00 87 1024.2
20260501230935 7 174 0.0 0.0 0.00 0.00 0.00 87 1024.4
20260501230918 7 174 0.0 0.0 0.00 0.00 0.00 87 1024.5
20260501230646 7 174 0.0 0.0 0.00 0.00 0.00 87 1024.4
20260501230332 7 174 0.0 0.0 0.00 0.00 0.00 86 1024.4
20260501230230 7 174 0.0 0.0 0.00 0.00 0.00 86 1024.3
20260501230130 7 174 0.0 0.0 0.00 0.00 0.00 86 1024.3
20260501230013 7 174 0.0 0.0 0.00 0.00 0.00 86 1024.4
20260501225925 7 174 0.0 0.0 0.00 0.00 0.00 86 1024.3
20260501225902 7 174 0.0 0.0 0.00 0.00 0.00 86 1024.5
20260501225846 7 174 0.0 0.0 0.00 0.00 0.00 86 1024.2
20260501225510 8 174 0.0 0.0 0.00 0.00 0.00 85 1024.5
20260501225424 8 174 0.0 0.0 0.00 0.00 0.00 85 1024.3
20260501225359 8 174 0.0 0.0 0.00 0.00 0.00 85 1024.4
20260501225343 8 174 0.0 0.0 0.00 0.00 0.00 86 1024.3
20260501225107 7 174 0.0 0.0 0.00 0.00 0.00 85 1024.2
20260501225057 8 174 0.0 0.0 0.00 0.00 0.00 86 1024.4
20260501225046 7 174 0.0 0.0 0.00 0.00 0.00 86 1024.4
20260501225036 7 174 0.0 0.0 0.00 0.00 0.00 86 1024.2
20260501225021 7 174 0.0 0.0 0.00 0.00 0.00 85 1024.3
20260501224756 7 174 0.0 0.0 0.00 0.00 0.00 85 1024.4
20260501224740 7 174 0.0 0.0 0.00 0.00 0.00 85 1024.6
20260501224725 7 174 0.0 0.0 0.00 0.00 0.00 85 1024.2
20260501224458 8 174 0.0 0.0 0.00 0.00 0.00 85 1024.6
20260501224442 8 174 0.0 0.0 0.00 0.00 0.00 84 1024.4
20260501224123 8 174 0.0 0.0 0.00 0.00 0.00 84 1024.3
20260501224007 8 174 0.0 0.0 0.00 0.00 0.00 83 1024.5
20260501223923 8 174 0.0 0.0 0.00 0.00 0.00 83 1024.4
20260501223823 8 174 0.0 0.0 0.00 0.00 0.00 83 1024.5
20260501223723 8 174 0.0 0.0 0.00 0.00 0.00 83 1024.4
20260501223636 8 174 0.0 0.0 0.00 0.00 0.00 83 1024.3
20260501223622 8 174 0.0 0.0 0.00 0.00 0.00 83 1024.6
20260501223609 8 175 0.0 0.0 0.00 0.00 0.00 83 1024.6
20260501223559 8 174 0.0 0.0 0.00 0.00 0.00 83 1024.1
20260501223539 8 175 0.0 0.0 0.00 0.00 0.00 83 1024.5
20260501223524 8 174 0.0 0.0 0.00 0.00 0.00 83 1024.6
20260501223249 8 174 0.0 0.0 0.00 0.00 0.00 83 1024.4
20260501223236 8 174 0.0 0.0 0.00 0.00 0.00 83 1024.4
20260501223225 8 174 0.0 0.0 0.00 0.00 0.00 83 1024.3
20260501222729 8 174 0.0 0.0 0.00 0.00 0.00 83 1024.4
20260501222451 8 174 0.0 0.0 0.00 0.00 0.00 83 1024.6
20260501222407 8 174 0.0 0.0 0.00 0.00 0.00 83 1024.5
20260501222307 8 174 0.0 0.0 0.00 0.00 0.00 83 1024.3
20260501222247 8 174 0.0 0.0 0.00 0.00 0.00 83 1024.5
20260501222239 8 174 0.0 0.0 0.00 0.00 0.00 83 1024.5
20260501222223 8 174 0.0 0.0 0.00 0.00 0.00 83 1024.4
20260501222207 8 174 0.0 0.0 0.00 0.00 0.00 83 1024.5
20260501221909 8 174 0.0 0.0 0.00 0.00 0.00 82 1024.5
20260501221808 8 174 0.0 0.0 0.00 0.00 0.00 82 1024.3
20260501221742 8 174 0.0 0.0 0.00 0.00 0.00 82 1024.4
20260501221725 8 174 0.0 0.0 0.00 0.00 0.00 82 1024.3
20260501221658 8 174 0.0 0.0 0.00 0.00 0.00 82 1024.3
20260501221647 8 174 0.0 0.0 0.00 0.00 0.00 82 1024.5
20260501221059 8 174 0.0 0.0 0.00 0.00 0.00 82 1024.4
20260501221025 8 174 0.0 0.0 0.00 0.00 0.00 82 1024.5
20260501221014 8 174 0.0 0.0 0.00 0.00 0.00 82 1024.4
20260501220652 8 174 0.0 0.0 0.00 0.00 0.00 83 1024.6
20260501220545 8 174 0.0 0.0 0.00 0.00 0.00 83 1024.5
20260501220443 8 174 0.0 0.0 0.00 0.00 0.00 83 1024.6
20260501220342 8 174 0.0 0.0 0.00 0.00 0.00 83 1024.7
20260501220244 8 174 0.0 0.0 0.00 0.00 0.00 83 1024.6
20260501220229 8 174 0.0 0.0 0.00 0.00 0.00 82 1024.5
20260501220220 8 174 0.0 0.0 0.00 0.00 0.00 83 1024.4
20260501220204 8 174 0.0 0.0 0.00 0.00 0.00 83 1024.3
20260501220147 8 174 0.0 0.0 0.00 0.00 0.00 82 1024.5
20260501215736 8 175 0.0 0.0 0.00 0.00 0.00 82 1024.5
20260501215628 8 175 0.0 0.0 0.00 0.00 0.00 82 1024.3
20260501215614 8 175 0.0 0.0 0.00 0.00 0.00 82 1024.4
20260501215603 8 175 0.0 0.0 0.00 0.00 0.00 82 1024.5
20260501215546 8 175 0.0 0.0 0.00 0.00 0.00 82 1024.7
20260501215540 8 175 0.0 0.0 0.00 0.00 0.00 82 1024.7
20260501215305 8 174 0.0 0.0 0.00 0.00 0.00 82 1024.6
20260501215248 8 174 0.0 0.0 0.00 0.00 0.00 82 1024.5
20260501215233 8 175 0.0 0.0 0.00 0.00 0.00 82 1024.4
20260501215007 8 175 0.0 0.0 0.00 0.00 0.00 82 1024.4
20260501214648 8 175 0.0 0.0 0.00 0.00 0.00 81 1024.4
20260501214548 8 175 0.0 0.0 0.00 0.00 0.00 81 1024.5
20260501214448 8 175 0.0 0.0 0.00 0.00 0.00 81 1024.3
20260501214418 9 175 0.0 0.0 0.00 0.00 0.00 81 1024.5
20260501214343 9 174 0.0 0.0 0.00 0.00 0.00 81 1024.4
20260501214241 9 175 0.0 0.0 0.00 0.00 0.00 81 1024.3
20260501214142 9 174 0.0 0.0 0.00 0.00 0.00 81 1024.4
20260501214132 10 175 0.0 0.0 0.00 0.00 0.00 78 1024.4
20260501214122 9 174 0.0 0.0 0.00 0.00 0.00 81 1024.7
20260501214107 9 175 0.0 0.0 0.00 0.00 0.00 81 1024.5
20260501214053 9 174 0.0 0.0 0.00 0.00 0.00 80 1024.5
20260501214044 9 174 0.0 0.0 0.00 0.00 0.00 80 1024.4
20260501213808 9 174 0.0 0.0 0.00 0.00 0.00 80 1024.3
20260501213543 9 174 0.0 0.0 0.00 0.00 0.00 80 1024.3
20260501213513 9 174 0.0 0.0 0.00 0.00 0.00 80 1024.4
20260501213504 9 174 0.0 0.0 0.00 0.00 0.00 80 1024.4
20260501213226 9 174 0.0 0.0 0.00 0.00 0.00 79 1024.3
20260501213211 9 174 0.0 0.0 0.00 0.00 0.00 79 1024.3
20260501213155 9 174 0.0 0.0 0.00 0.00 0.00 79 1024.3
20260501213141 9 174 0.0 0.0 0.00 0.00 0.00 79 1024.3
20260501213131 9 174 0.0 0.0 0.00 0.00 0.00 78 1024.5
20260501213116 9 174 0.0 0.0 0.00 0.00 0.00 79 1024.2
20260501212840 10 174 0.0 0.0 0.00 0.00 0.00 79 1024.3
20260501212329 10 175 0.0 0.0 0.00 0.00 0.00 78 1024.3
20260501212229 10 175 0.0 0.0 0.00 0.00 0.00 77 1024.2
20260501212125 10 175 0.0 0.0 0.00 0.00 0.00 77 1024.4
20260501212025 10 175 0.0 0.0 0.00 0.00 0.00 77 1024.4
20260501211925 10 175 0.0 0.0 0.00 0.00 0.00 77 1024.5
20260501211856 10 175 0.0 0.0 0.00 0.00 0.00 77 1024.5
20260501211824 10 175 0.0 0.0 0.00 0.00 0.00 77 1024.3
20260501211800 10 175 0.0 0.0 0.00 0.00 0.00 77 1024.5
20260501211746 10 175 0.0 0.0 0.00 0.00 0.00 77 1024.3
20260501211424 10 175 0.0 0.0 0.00 0.00 0.00 77 1024.4
20260501211357 10 175 0.0 0.0 0.00 0.00 0.00 77 1024.4
20260501211324 10 175 0.0 0.0 0.00 0.00 0.00 77 1024.4
20260501211235 10 175 0.0 0.0 0.00 0.00 0.00 75 1024.4
20260501211230 10 175 0.0 0.0 0.00 0.00 0.00 77 1024.5
20260501211214 10 175 0.0 0.0 0.00 0.00 0.00 77 1024.4
20260501211158 10 175 0.0 0.0 0.00 0.00 0.00 77 1024.3
20260501211142 10 175 0.0 0.0 0.00 0.00 0.00 77 1024.2
20260501211130 10 175 0.0 0.0 0.00 0.00 0.00 77 1024.2
20260501211120 10 175 0.0 0.0 0.00 0.00 0.00 77 1024.3
20260501210624 10 175 0.0 0.0 0.00 0.00 0.00 76 1024.4
20260501210556 10 175 0.0 0.0 0.00 0.00 0.00 76 1024.4
20260501210323 10 175 0.0 0.0 0.00 0.00 0.00 76 1024.4
20260501210307 10 175 0.0 0.0 0.00 0.00 0.00 76 1024.5
20260501210252 10 175 0.0 0.0 0.00 0.00 0.00 76 1024.2
20260501210235 10 175 0.0 0.0 0.00 0.00 0.00 75 1024.4
20260501210008 10 175 0.0 0.0 0.00 0.00 0.00 75 1024.4
20260501205730 10 175 0.0 0.0 0.00 0.00 0.00 75 1024.4
20260501205447 10 175 0.0 0.0 0.00 0.00 0.00 74 1024.3
20260501205430 10 175 0.0 0.0 0.00 0.00 0.00 74 1024.2
20260501205414 10 175 0.0 0.0 0.00 0.00 0.00 74 1024.2
20260501205400 10 175 0.0 0.0 0.00 0.00 0.00 74 1024.4
20260501205117 10 175 0.0 0.0 0.00 0.00 0.00 74 1024.3
20260501204619 11 175 0.0 0.0 0.00 0.00 0.00 73 1024.3
20260501204603 11 175 0.0 0.0 0.00 0.00 0.00 72 1024.4
20260501204337 11 175 0.0 0.0 0.00 0.00 0.00 72 1024.2
20260501204238 11 175 0.0 0.0 0.00 0.00 0.00 72 1024.3
20260501204137 11 175 0.0 0.0 0.00 0.00 0.00 72 1024.3
20260501204038 11 175 0.0 0.0 0.00 0.00 0.00 71 1024.4
20260501203937 11 175 0.0 0.0 0.00 0.00 0.00 71 1024.3
20260501203837 11 175 0.0 0.0 0.00 0.00 0.00 71 1024.1
20260501203737 11 175 0.0 0.0 0.00 0.00 0.00 71 1024.3
20260501203637 11 175 0.0 0.0 0.00 0.00 0.00 71 1024.3
20260501203538 11 175 0.0 0.0 0.00 0.00 0.00 70 1024.3
20260501203528 12 175 0.0 0.0 0.00 0.00 0.00 68 1024.4
20260501203524 12 175 0.0 0.0 0.00 0.00 0.00 67 1024.3
20260501203515 11 175 0.0 0.0 0.00 0.00 0.00 70 1024.3
20260501203446 11 175 0.0 0.0 0.00 0.00 0.00 70 1024.4
20260501203434 11 175 0.0 0.0 0.00 0.00 0.00 70 1024.4
20260501203418 11 175 0.0 0.0 0.00 0.00 0.00 70 1024.2
20260501203403 11 175 0.0 0.0 0.00 0.00 0.00 70 1024.3